When you browse on this site, cookies collect data to enhance your experience and personalize the content and advertising you see.
Visit our Privacy Policy to learn more. By continuing to use the site, you agree to this use of cookies and data.
  • In Hungary
  • List of Countries
  • For 7 days
  • Water Temperature
  • Weather Map
  • News
  • Weather Widgets
  • user-avatar
    Login

    Hourly Weather Melehina

    Today, 17 September, Tuesday

    Time Temperature Precipitation Wind Pressure Humidity
    00:00 +7°C° 0.6 mm 3 mps 725 mmHg 95%
    01:00 +7°C° 0.6 mm 3 mps 725 mmHg 97%
    02:00 +7°C° 0.4 mm 3 mps 724 mmHg 97%
    03:00 +7°C° 0.4 mm 2 mps 724 mmHg 97%
    04:00 +7°C° 0.4 mm 2 mps 724 mmHg 97%
    05:00 +7°C° 0 mm 2 mps 724 mmHg 96%
    06:00 +7°C° 0 mm 3 mps 725 mmHg 96%
    07:00 +7°C° 0 mm 3 mps 725 mmHg 95%
    08:00 +8°C° 0 mm 3 mps 725 mmHg 94%
    09:00 +8°C° 0 mm 3 mps 725 mmHg 93%
    10:00 +9°C° 0 mm 3 mps 725 mmHg 91%
    11:00 +8°C° 0.2 mm 4 mps 726 mmHg 90%
    12:00 +8°C° 0.2 mm 4 mps 726 mmHg 89%
    13:00 +10°C° 0.2 mm 4 mps 726 mmHg 88%
    14:00 +10°C° 0.2 mm 4 mps 726 mmHg 87%
    15:00 +10°C° 0.2 mm 4 mps 726 mmHg 86%
    16:00 +10°C° 0.2 mm 4 mps 726 mmHg 85%
    17:00 +8°C° 0.6 mm 4 mps 726 mmHg 89%
    18:00 +9°C° 0.6 mm 3 mps 726 mmHg 92%
    19:00 +8°C° 0.6 mm 3 mps 726 mmHg 96%
    20:00 +8°C° 0.2 mm 3 mps 725 mmHg 96%
    21:00 +7°C° 0.2 mm 3 mps 725 mmHg 96%
    22:00 +7°C° 0.2 mm 3 mps 725 mmHg 97%
    23:00 +7°C° 0 mm 3 mps 725 mmHg 97%

    Tomorrow, 18 September, Wednesday

    Time Temperature Precipitation Wind Pressure Humidity
    00:00 +7°C° 0 mm 3 mps 725 mmHg 97%
    01:00 +5°C° 0 mm 3 mps 725 mmHg 97%
    02:00 +7°C° 0 mm 3 mps 725 mmHg 96%
    03:00 +7°C° 0 mm 3 mps 725 mmHg 96%
    04:00 +7°C° 0 mm 3 mps 725 mmHg 96%
    05:00 +7°C° 0 mm 3 mps 725 mmHg 95%
    06:00 +7°C° 0 mm 3 mps 725 mmHg 95%
    07:00 +7°C° 0 mm 3 mps 725 mmHg 94%
    08:00 +6°C° 0 mm 4 mps 725 mmHg 92%
    09:00 +7°C° 0 mm 4 mps 726 mmHg 90%
    10:00 +7°C° 0 mm 4 mps 726 mmHg 88%
    11:00 +7°C° 0 mm 4 mps 726 mmHg 87%
    12:00 +7°C° 0 mm 4 mps 727 mmHg 86%
    13:00 +7°C° 0 mm 4 mps 727 mmHg 86%
    14:00 +8°C° 0 mm 4 mps 727 mmHg 83%
    15:00 +8°C° 0 mm 4 mps 727 mmHg 81%
    16:00 +10°C° 0 mm 3 mps 728 mmHg 78%
    17:00 +9°C° 0.2 mm 3 mps 728 mmHg 82%
    18:00 +8°C° 0.2 mm 3 mps 728 mmHg 87%
    19:00 +7°C° 0.2 mm 2 mps 727 mmHg 91%
    20:00 +6°C° 0 mm 2 mps 728 mmHg 93%
    21:00 +6°C° 0 mm 2 mps 728 mmHg 95%
    22:00 +5°C° 0 mm 2 mps 728 mmHg 97%
    23:00 +5°C° 0 mm 2 mps 728 mmHg 97%

    Day after tomorrow, 19 September, Thursday

    Time Temperature Precipitation Wind Pressure Humidity
    00:00 +5°C° 0 mm 2 mps 728 mmHg 97%
    01:00 +5°C° 0 mm 2 mps 728 mmHg 97%
    02:00 +5°C° 0 mm 2 mps 728 mmHg 97%
    03:00 +5°C° 0 mm 2 mps 727 mmHg 97%
    04:00 +6°C° 0 mm 1 mps 727 mmHg 97%
    05:00 +6°C° 0 mm 1 mps 727 mmHg 96%
    06:00 +6°C° 0 mm 1 mps 727 mmHg 96%
    07:00 +5°C° 0 mm 0 mps 726 mmHg 96%
    08:00 +6°C° 0 mm 0 mps 726 mmHg 93%
    09:00 +8°C° 0 mm 1 mps 726 mmHg 90%
    10:00 +8°C° 0 mm 1 mps 725 mmHg 87%
    11:00 +7°C° 0 mm 2 mps 725 mmHg 86%
    12:00 +7°C° 0 mm 2 mps 725 mmHg 85%
    13:00 +8°C° 0 mm 3 mps 724 mmHg 84%
    14:00 +8°C° 0 mm 3 mps 724 mmHg 82%
    15:00 +7°C° 0 mm 4 mps 725 mmHg 80%
    16:00 +7°C° 0 mm 4 mps 725 mmHg 79%
    17:00 +6°C° 0 mm 4 mps 726 mmHg 81%
    18:00 +5°C° 0 mm 5 mps 726 mmHg 84%
    19:00 +3°C° 0 mm 5 mps 727 mmHg 87%
    20:00 +3°C° 0 mm 5 mps 728 mmHg 86%
    21:00 +4°C° 0 mm 4 mps 728 mmHg 86%
    22:00 +3°C° 0 mm 4 mps 729 mmHg 85%
    23:00 +3°C° 0 mm 4 mps 730 mmHg 86%

    20 September, Friday

    Time Temperature Precipitation Wind Pressure Humidity
    00:00 +2°C° 0 mm 3 mps 730 mmHg 87%
    01:00 +1°C° 0 mm 3 mps 731 mmHg 89%
    02:00 +1°C° 0 mm 3 mps 732 mmHg 91%
    03:00 0°C° 0 mm 3 mps 732 mmHg 93%
    04:00 -1°C° 0 mm 3 mps 733 mmHg 95%
    05:00 -1°C° 0 mm 3 mps 733 mmHg 95%
    06:00 -1°C° 0 mm 3 mps 734 mmHg 94%
    07:00 -1°C° 0 mm 3 mps 734 mmHg 93%
    08:00 0°C° 0 mm 3 mps 735 mmHg 83%
    09:00 +2°C° 0 mm 3 mps 735 mmHg 73%
    10:00 +3°C° 0 mm 4 mps 736 mmHg 63%
    11:00 +4°C° 0 mm 4 mps 736 mmHg 60%
    12:00 +5°C° 0 mm 4 mps 736 mmHg 57%
    13:00 +6°C° 0 mm 4 mps 736 mmHg 53%
    14:00 +6°C° 0 mm 4 mps 737 mmHg 52%
    15:00 +6°C° 0 mm 4 mps 737 mmHg 51%
    16:00 +6°C° 0 mm 4 mps 737 mmHg 50%
    17:00 +4°C° 0 mm 3 mps 737 mmHg 57%
    18:00 +4°C° 0 mm 2 mps 737 mmHg 65%
    19:00 +2°C° 0 mm 2 mps 737 mmHg 72%
    20:00 +2°C° 0 mm 2 mps 738 mmHg 74%
    21:00 +1°C° 0 mm 2 mps 738 mmHg 77%
    22:00 -1°C° 0 mm 2 mps 738 mmHg 79%
    23:00 -1°C° 0 mm 2 mps 738 mmHg 80%

    21 September, Saturday

    Time Temperature Precipitation Wind Pressure Humidity
    00:00 -1°C° 0 mm 2 mps 738 mmHg 81%
    01:00 -1°C° 0 mm 2 mps 738 mmHg 83%
    02:00 -1°C° 0 mm 2 mps 738 mmHg 86%
    03:00 -2°C° 0 mm 2 mps 738 mmHg 89%
    04:00 -2°C° 0 mm 2 mps 738 mmHg 93%
    05:00 -2°C° 0 mm 2 mps 738 mmHg 92%
    06:00 +1°C° 0 mm 1 mps 738 mmHg 91%
    07:00 +1°C° 0 mm 1 mps 738 mmHg 90%
    08:00 +3°C° 0 mm 1 mps 739 mmHg 82%
    09:00 +4°C° 0 mm 1 mps 739 mmHg 73%
    10:00 +6°C° 0 mm 1 mps 739 mmHg 64%
    11:00 +6°C° 0 mm 2 mps 739 mmHg 60%
    12:00 +7°C° 0 mm 2 mps 739 mmHg 55%
    13:00 +7°C° 0 mm 2 mps 738 mmHg 50%
    14:00 +7°C° 0 mm 2 mps 738 mmHg 50%
    15:00 +7°C° 0 mm 2 mps 738 mmHg 50%
    16:00 +7°C° 0 mm 2 mps 738 mmHg 50%
    17:00 +6°C° 0 mm 2 mps 738 mmHg 60%
    18:00 +4°C° 0 mm 2 mps 738 mmHg 69%
    19:00 +3°C° 0 mm 1 mps 738 mmHg 79%
    20:00 +3°C° 0 mm 1 mps 738 mmHg 83%
    21:00 +2°C° 0 mm 1 mps 739 mmHg 87%
    22:00 +1°C° 0 mm 1 mps 739 mmHg 92%
    23:00 +1°C° 0 mm 1 mps 739 mmHg 93%

    22 September, Sunday

    Time Temperature Precipitation Wind Pressure Humidity
    00:00 0°C° 0 mm 1 mps 739 mmHg 95%
    01:00 -1°C° 0 mm 1 mps 739 mmHg 96%
    02:00 -1°C° 0 mm 1 mps 739 mmHg 97%
    03:00 -1°C° 0 mm 1 mps 739 mmHg 97%
    04:00 -1°C° 0 mm 1 mps 739 mmHg 98%
    05:00 -1°C° 0 mm 1 mps 739 mmHg 98%
    06:00 -3°C° 0 mm 2 mps 739 mmHg 97%
    07:00 -3°C° 0 mm 2 mps 740 mmHg 97%
    08:00 -1°C° 0 mm 2 mps 740 mmHg 90%
    09:00 +1°C° 0 mm 2 mps 740 mmHg 84%
    10:00 +3°C° 0 mm 2 mps 740 mmHg 77%
    11:00 +4°C° 0 mm 2 mps 740 mmHg 73%
    12:00 +4°C° 0 mm 2 mps 740 mmHg 69%
    13:00 +5°C° 0 mm 2 mps 740 mmHg 64%
    14:00 +5°C° 0 mm 2 mps 740 mmHg 64%
    15:00 +5°C° 0 mm 2 mps 740 mmHg 63%
    16:00 +5°C° 0 mm 2 mps 740 mmHg 63%
    17:00 +5°C° 0 mm 1 mps 740 mmHg 71%
    18:00 +3°C° 0 mm 1 mps 740 mmHg 78%
    19:00 +1°C° 0 mm 0 mps 739 mmHg 86%
    20:00 +2°C° 0 mm 1 mps 739 mmHg 85%
    21:00 +2°C° 0 mm 1 mps 739 mmHg 83%
    22:00 +2°C° 0 mm 1 mps 739 mmHg 82%
    23:00 +2°C° 0 mm 1 mps 738 mmHg 83%
    Show more